Погода в Петропавловке

Украина / Харьковская область     50°03′12″N   35°41′18″E
темп.,
°C
ветер,
м/с
пор.,
м/с
влажн.,
%
обл.,
%
осадки,
мм/ч
давл.,
гПа
погр.,
м
6 мая, чт
чт600:00+13ю51263100 0.0 1013394
03:00+9ююз41168100 0.0 1013327
06:00+8ю51264100 0.0 1013330
09:00+12ю7125494 0.0 1012673
12:00+16ююз81151100 0.0 10111516
15:00+18юз7948100 0.0 10101972
18:00+14зюз4863100 0.1 1010310
21:00+9ссз5889100 0.4 1013408
7 мая, пт
пт700:00+8с3590100 2.9 1013301
03:00+6сз23923 2.9 101458
06:00+6зсз24933 0.0 1016113
09:00+12з11710 0.0 1016551
12:00+15ююз234898 0.0 10161676
15:00+16ю3442100 0.0 10151701
18:00+16ю365274 0.0 10141099
21:00+12ююв4962100 0.0 1014183
8 мая, сб
сб800:00+12юв71560100 0.0 1011368
03:00+13ююз71575100 0.0 1010740
06:00+11ююз71485100 0.4 1009653
09:00+12ю71492100 1.6 1008769
12:00+12юз61294100 2.1 1008862
15:00+10сз5994100 8.2 1011529
18:00+9зсз51180100 0.4 1012677
21:00+7сз51181100 0.4 1015583
9 мая, вс
вс900:00+7сз41082100 0.0 1016510
03:00+5сз4118460 0.0 1017479
06:00+4сз41086100 0.0 1019371
09:00+8ссз6972100 0.0 1020777
12:00+11ссз795486 0.0 10201931
15:00+11ссз7105584 0.1 10212024
18:00+12ссз511565 0.1 10232246
21:00+7ссз387322 0.1 1025151
10 мая, пн
пн1000:00+5ссз37775 0.0 1026126
03:00+4ссз410810 0.0 1027196
06:00+4с412810 0.0 1028335
09:00+10ссв712610 0.0 10281132
12:00+13ссв911495 0.0 10261481
15:00+15ссв9114833 0.0 10251706
18:00+12ссв71361100 0.0 1024982
21:00+12ссв81559100 0.0 1025811